Precipitable_Water
0.31 0.31 0.31 0.31 0.31 0.31 0.31 0.32 0.33 0.35 0.34 0.34 0.34 0.34 0.35 0.35 0.35 0.36 0.36 0.36 0.37 0.36 0.36 0.36 0.36 0.36 0.36 0.36 0.35 0.35 0.35 0.35 0.35 0.35 0.35 0.34 0.35 0.35 0.35 0.35 0.34 0.34 0.34 0.33 0.33 0.33 0.33 0.33 0.33 0.34 0.34 0.33 0.33 0.33 0.32 0.32 0.32 0.31 0.30 0.30 0.29 0.28 0.28 0.27 0.25 0.25 0.26 0.26 0.26 0.26 0.26 0.26 0.26 0.26 0.26 0.25 0.26 0.28 0.27 0.26 0.26 0.26 0.27 0.26 0.25
0.31 0.31 0.32 0.32 0.31 0.31 0.32 0.32 0.33 0.33 0.33 0.35 0.35 0.35 0.35 0.35 0.35 0.35 0.35 0.36 0.37 0.36 0.36 0.37 0.37 0.37 0.37 0.37 0.37 0.37 0.37 0.36 0.37 0.37 0.36 0.36 0.36 0.37 0.36 0.36 0.36 0.36 0.36 0.35 0.35 0.35 0.35 0.35 0.35 0.35 0.35 0.34 0.34 0.33 0.33 0.32 0.31 0.31 0.30 0.29 0.29 0.28 0.29 0.27 0.26 0.25 0.25 0.25 0.25 0.26 0.26 0.26 0.25 0.26 0.25 0.25 0.26 0.27 0.27 0.26 0.26 0.26 0.26 0.25 0.25
0.32 0.32 0.32 0.32 0.32 0.33 0.33 0.32 0.32 0.32 0.32 0.33 0.33 0.34 0.35 0.36 0.37 0.36 0.36 0.36 0.37 0.37 0.37 0.37 0.37 0.37 0.37 0.37 0.37 0.37 0.37 0.37 0.37 0.37 0.37 0.37 0.37 0.38 0.38 0.38 0.37 0.37 0.36 0.36 0.36 0.36 0.36 0.35 0.35 0.35 0.35 0.34 0.34 0.33 0.33 0.32 0.32 0.31 0.30 0.30 0.29 0.29 0.29 0.28 0.27 0.26 0.25 0.25 0.26 0.25 0.25 0.25 0.25 0.25 0.25 0.26 0.27 0.27 0.26 0.26 0.26 0.26 0.26 0.25 0.24
0.32 0.32 0.32 0.32 0.33 0.33 0.33 0.33 0.33 0.33 0.32 0.32 0.32 0.33 0.33 0.34 0.35 0.36 0.36 0.37 0.37 0.38 0.38 0.37 0.37 0.37 0.37 0.37 0.37 0.37 0.37 0.37 0.38 0.38 0.38 0.38 0.39 0.39 0.39 0.39 0.38 0.38 0.37 0.37 0.37 0.36 0.36 0.35 0.35 0.35 0.35 0.34 0.33 0.33 0.32 0.32 0.31 0.31 0.30 0.30 0.29 0.29 0.29 0.29 0.28 0.27 0.26 0.25 0.25 0.25 0.25 0.25 0.25 0.25 0.25 0.25 0.26 0.26 0.26 0.26 0.25 0.25 0.25 0.24 0.24
0.33 0.33 0.33 0.32 0.33 0.33 0.33 0.33 0.33 0.34 0.34 0.34 0.34 0.34 0.34 0.34 0.35 0.35 0.36 0.36 0.36 0.37 0.37 0.38 0.37 0.37 0.37 0.37 0.38 0.38 0.39 0.39 0.39 0.39 0.39 0.40 0.40 0.40 0.39 0.39 0.39 0.38 0.38 0.38 0.37 0.37 0.36 0.35 0.35 0.35 0.34 0.33 0.32 0.32 0.32 0.31 0.31 0.31 0.30 0.30 0.29 0.29 0.29 0.29 0.28 0.28 0.27 0.26 0.26 0.26 0.26 0.25 0.25 0.25 0.25 0.24 0.25 0.25 0.25 0.25 0.25 0.24 0.24 0.24 0.24
0.32 0.33 0.34 0.33 0.33 0.33 0.33 0.33 0.33 0.33 0.33 0.34 0.35 0.36 0.37 0.36 0.36 0.36 0.36 0.36 0.36 0.37 0.37 0.38 0.39 0.39 0.40 0.40 0.40 0.41 0.41 0.41 0.41 0.41 0.41 0.41 0.40 0.40 0.39 0.39 0.39 0.38 0.38 0.37 0.37 0.36 0.36 0.35 0.35 0.34 0.33 0.32 0.32 0.32 0.31 0.31 0.31 0.30 0.30 0.29 0.29 0.29 0.29 0.28 0.28 0.28 0.27 0.27 0.26 0.26 0.25 0.25 0.24 0.24 0.25 0.24 0.24 0.23 0.24 0.24 0.24 0.24 0.23 0.23 0.23
0.28 0.30 0.32 0.32 0.32 0.33 0.33 0.33 0.33 0.33 0.33 0.34 0.34 0.35 0.36 0.37 0.37 0.38 0.39 0.38 0.38 0.38 0.38 0.39 0.39 0.40 0.41 0.41 0.41 0.42 0.42 0.42 0.41 0.41 0.40 0.40 0.39 0.39 0.38 0.38 0.37 0.37 0.37 0.36 0.36 0.36 0.35 0.34 0.34 0.33 0.33 0.32 0.31 0.31 0.31 0.30 0.30 0.30 0.29 0.29 0.29 0.28 0.28 0.28 0.28 0.28 0.27 0.27 0.26 0.26 0.25 0.25 0.25 0.24 0.24 0.24 0.24 0.23 0.23 0.23 0.22 0.23 0.23 0.23 0.22
0.23 0.25 0.27 0.29 0.30 0.31 0.32 0.33 0.33 0.33 0.33 0.34 0.34 0.34 0.34 0.35 0.35 0.36 0.36 0.37 0.38 0.38 0.38 0.38 0.38 0.38 0.39 0.39 0.40 0.40 0.40 0.40 0.40 0.39 0.39 0.38 0.38 0.37 0.37 0.36 0.36 0.36 0.35 0.35 0.35 0.34 0.34 0.33 0.33 0.33 0.32 0.32 0.31 0.31 0.31 0.30 0.30 0.29 0.29 0.29 0.28 0.28 0.28 0.28 0.27 0.27 0.27 0.26 0.26 0.25 0.25 0.25 0.24 0.24 0.24 0.23 0.22 0.22 0.23 0.22 0.22 0.22 0.22 0.22 0.22
0.20 0.21 0.22 0.23 0.25 0.27 0.29 0.30 0.31 0.32 0.32 0.33 0.33 0.33 0.33 0.33 0.34 0.34 0.34 0.34 0.35 0.35 0.35 0.36 0.36 0.35 0.35 0.35 0.35 0.36 0.36 0.37 0.37 0.37 0.36 0.36 0.36 0.35 0.35 0.35 0.34 0.33 0.33 0.33 0.33 0.33 0.32 0.32 0.32 0.32 0.32 0.31 0.31 0.31 0.30 0.30 0.29 0.28 0.29 0.29 0.28 0.28 0.27 0.27 0.27 0.26 0.26 0.25 0.25 0.25 0.24 0.24 0.24 0.23 0.23 0.22 0.22 0.22 0.22 0.22 0.21 0.22 0.22 0.22 0.22
0.19 0.19 0.20 0.21 0.22 0.23 0.25 0.27 0.28 0.29 0.29 0.30 0.30 0.31 0.31 0.32 0.32 0.32 0.33 0.33 0.33 0.33 0.33 0.33 0.33 0.33 0.33 0.33 0.34 0.33 0.33 0.33 0.33 0.33 0.34 0.33 0.33 0.33 0.33 0.33 0.32 0.32 0.31 0.31 0.31 0.31 0.31 0.31 0.31 0.31 0.31 0.31 0.31 0.31 0.30 0.30 0.30 0.29 0.29 0.28 0.28 0.27 0.27 0.26 0.26 0.26 0.25 0.25 0.24 0.24 0.23 0.23 0.23 0.23 0.22 0.22 0.22 0.22 0.21 0.21 0.20 0.21 0.21 0.20 0.20
0.17 0.18 0.18 0.19 0.20 0.21 0.22 0.23 0.24 0.25 0.26 0.27 0.28 0.28 0.29 0.29 0.30 0.30 0.30 0.31 0.31 0.31 0.32 0.31 0.32 0.32 0.32 0.32 0.32 0.33 0.33 0.33 0.34 0.33 0.33 0.33 0.32 0.31 0.31 0.31 0.31 0.31 0.31 0.30 0.30 0.30 0.31 0.31 0.31 0.31 0.31 0.31 0.30 0.30 0.30 0.29 0.29 0.29 0.29 0.29 0.28 0.28 0.26 0.26 0.25 0.25 0.25 0.24 0.24 0.24 0.23 0.23 0.23 0.23 0.22 0.22 0.22 0.21 0.21 0.21 0.20 0.20 0.19 0.18 0.18
0.17 0.17 0.17 0.18 0.19 0.20 0.20 0.21 0.22 0.22 0.23 0.24 0.25 0.26 0.26 0.27 0.27 0.27 0.28 0.28 0.29 0.29 0.29 0.29 0.30 0.30 0.30 0.30 0.30 0.31 0.31 0.33 0.33 0.34 0.34 0.34 0.34 0.33 0.32 0.31 0.31 0.31 0.30 0.30 0.30 0.30 0.30 0.30 0.30 0.30 0.30 0.30 0.29 0.29 0.29 0.29 0.28 0.28 0.28 0.28 0.28 0.28 0.28 0.26 0.25 0.24 0.24 0.23 0.23 0.23 0.23 0.22 0.23 0.22 0.22 0.21 0.21 0.21 0.20 0.20 0.20 0.19 0.19 0.18 0.18
0.17 0.17 0.17 0.17 0.17 0.18 0.19 0.19 0.20 0.21 0.21 0.22 0.23 0.23 0.24 0.24 0.25 0.25 0.25 0.26 0.26 0.26 0.27 0.27 0.27 0.28 0.28 0.28 0.28 0.29 0.29 0.31 0.31 0.32 0.32 0.33 0.33 0.32 0.32 0.31 0.30 0.30 0.30 0.29 0.29 0.29 0.29 0.29 0.28 0.29 0.29 0.29 0.29 0.28 0.28 0.28 0.28 0.28 0.28 0.27 0.27 0.27 0.27 0.27 0.27 0.26 0.25 0.24 0.23 0.23 0.23 0.22 0.22 0.22 0.22 0.21 0.21 0.20 0.20 0.19 0.19 0.19 0.19 0.18 0.17
0.17 0.17 0.17 0.17 0.17 0.18 0.18 0.18 0.18 0.19 0.20 0.20 0.21 0.21 0.22 0.22 0.23 0.23 0.24 0.24 0.24 0.24 0.25 0.25 0.25 0.25 0.26 0.26 0.26 0.27 0.28 0.29 0.30 0.30 0.30 0.31 0.31 0.31 0.31 0.30 0.30 0.30 0.29 0.29 0.29 0.28 0.28 0.28 0.27 0.27 0.28 0.28 0.28 0.28 0.27 0.27 0.27 0.27 0.26 0.26 0.26 0.26 0.26 0.26 0.26 0.26 0.25 0.24 0.23 0.22 0.23 0.23 0.22 0.22 0.22 0.22 0.20 0.20 0.19 0.19 0.19 0.18 0.17 0.17 0.17
0.17 0.17 0.17 0.18 0.18 0.17 0.18 0.18 0.17 0.18 0.18 0.19 0.19 0.19 0.20 0.20 0.21 0.21 0.22 0.22 0.22 0.22 0.23 0.23 0.23 0.24 0.24 0.24 0.24 0.25 0.26 0.27 0.28 0.28 0.28 0.28 0.29 0.29 0.29 0.29 0.29 0.28 0.28 0.28 0.28 0.28 0.27 0.27 0.27 0.26 0.26 0.26 0.27 0.26 0.26 0.26 0.25 0.25 0.25 0.25 0.25 0.25 0.25 0.25 0.25 0.25 0.25 0.24 0.23 0.23 0.23 0.23 0.22 0.22 0.21 0.21 0.20 0.20 0.19 0.19 0.18 0.18 0.17 0.17 0.16
0.17 0.17 0.17 0.17 0.17 0.17 0.17 0.17 0.17 0.17 0.17 0.17 0.18 0.18 0.18 0.19 0.19 0.19 0.20 0.20 0.21 0.21 0.21 0.22 0.22 0.22 0.22 0.23 0.23 0.23 0.24 0.26 0.26 0.26 0.26 0.26 0.26 0.26 0.26 0.26 0.26 0.26 0.26 0.27 0.26 0.27 0.27 0.26 0.26 0.25 0.25 0.25 0.25 0.26 0.25 0.25 0.24 0.24 0.23 0.23 0.23 0.24 0.24 0.24 0.25 0.24 0.24 0.24 0.23 0.22 0.22 0.21 0.21 0.21 0.20 0.20 0.19 0.19 0.19 0.18 0.17 0.16 0.15 0.14 0.13
0.17 0.17 0.17 0.17 0.17 0.17 0.17 0.17 0.17 0.17 0.17 0.17 0.17 0.17 0.17 0.17 0.18 0.18 0.18 0.19 0.19 0.19 0.20 0.20 0.20 0.21 0.21 0.21 0.21 0.21 0.22 0.24 0.25 0.25 0.25 0.24 0.24 0.24 0.24 0.24 0.24 0.24 0.24 0.24 0.24 0.25 0.25 0.25 0.25 0.25 0.24 0.24 0.24 0.25 0.25 0.24 0.23 0.23 0.22 0.22 0.22 0.22 0.22 0.23 0.23 0.23 0.23 0.23 0.23 0.22 0.21 0.21 0.20 0.20 0.20 0.20 0.19 0.18 0.17 0.15 0.14 0.14 0.13 0.12 0.12
0.17 0.17 0.17 0.17 0.17 0.17 0.17 0.17 0.17 0.17 0.17 0.17 0.17 0.17 0.17 0.17 0.17 0.17 0.17 0.17 0.18 0.18 0.18 0.19 0.19 0.19 0.20 0.20 0.20 0.20 0.20 0.21 0.23 0.23 0.24 0.23 0.23 0.22 0.22 0.22 0.22 0.22 0.22 0.22 0.23 0.23 0.23 0.24 0.24 0.23 0.23 0.23 0.23 0.24 0.24 0.23 0.22 0.21 0.20 0.19 0.19 0.18 0.19 0.20 0.20 0.20 0.21 0.21 0.21 0.21 0.20 0.20 0.20 0.19 0.19 0.19 0.19 0.18 0.16 0.14 0.14 0.14 0.12 0.12 0.11
0.16 0.16 0.17 0.17 0.17 0.17 0.17 0.17 0.17 0.17 0.17 0.17 0.17 0.17 0.17 0.17 0.17 0.17 0.17 0.17 0.17 0.17 0.17 0.17 0.18 0.18 0.18 0.18 0.19 0.19 0.19 0.19 0.20 0.22 0.22 0.22 0.21 0.21 0.20 0.20 0.20 0.20 0.20 0.20 0.21 0.21 0.21 0.21 0.22 0.22 0.21 0.21 0.21 0.21 0.21 0.21 0.20 0.19 0.18 0.18 0.17 0.16 0.17 0.17 0.17 0.17 0.17 0.17 0.17 0.18 0.18 0.19 0.19 0.19 0.18 0.18 0.18 0.18 0.16 0.15 0.14 0.13 0.12 0.11 0.11
0.17 0.17 0.17 0.17 0.17 0.17 0.17 0.17 0.17 0.17 0.17 0.17 0.17 0.17 0.17 0.16 0.16 0.16 0.16 0.16 0.16 0.16 0.16 0.16 0.16 0.16 0.16 0.16 0.16 0.17 0.17 0.17 0.17 0.18 0.19 0.19 0.19 0.19 0.18 0.17 0.16 0.16 0.16 0.16 0.16 0.17 0.17 0.17 0.17 0.18 0.18 0.19 0.18 0.18 0.18 0.19 0.18 0.18 0.18 0.16 0.16 0.15 0.17 0.16 0.16 0.16 0.16 0.16 0.16 0.16 0.16 0.16 0.17 0.17 0.17 0.17 0.18 0.18 0.16 0.15 0.14 0.13 0.12 0.11 0.11
0.17 0.16 0.16 0.16 0.16 0.16 0.16 0.16 0.16 0.16 0.17 0.17 0.17 0.16 0.16 0.15 0.15 0.14 0.14 0.14 0.14 0.14 0.14 0.15 0.15 0.15 0.15 0.15 0.15 0.15 0.15 0.15 0.15 0.15 0.16 0.16 0.16 0.17 0.16 0.15 0.14 0.14 0.13 0.13 0.13 0.13 0.13 0.13 0.14 0.14 0.14 0.15 0.15 0.16 0.16 0.17 0.17 0.17 0.17 0.16 0.16 0.16 0.16 0.15 0.14 0.15 0.14 0.14 0.14 0.14 0.15 0.15 0.15 0.15 0.15 0.15 0.15 0.16 0.16 0.15 0.15 0.14 0.13 0.11 0.11
0.16 0.16 0.16 0.15 0.15 0.16 0.16 0.16 0.16 0.16 0.16 0.16 0.15 0.15 0.15 0.15 0.14 0.14 0.14 0.14 0.13 0.13 0.13 0.14 0.14 0.14 0.14 0.14 0.14 0.13 0.13 0.13 0.13 0.13 0.13 0.13 0.14 0.14 0.14 0.13 0.12 0.12 0.12 0.12 0.12 0.12 0.12 0.12 0.11 0.12 0.12 0.12 0.12 0.12 0.12 0.13 0.13 0.14 0.14 0.15 0.16 0.16 0.16 0.17 0.16 0.15 0.15 0.14 0.14 0.13 0.13 0.13 0.13 0.13 0.13 0.13 0.14 0.14 0.14 0.14 0.14 0.14 0.14 0.13 0.12
0.16 0.15 0.15 0.15 0.15 0.15 0.15 0.15 0.15 0.15 0.15 0.15 0.15 0.14 0.14 0.14 0.14 0.14 0.13 0.13 0.13 0.13 0.12 0.13 0.12 0.12 0.12 0.12 0.12 0.12 0.12 0.12 0.11 0.11 0.11 0.12 0.13 0.13 0.14 0.13 0.14 0.14 0.13 0.12 0.12 0.12 0.12 0.12 0.12 0.12 0.12 0.12 0.13 0.13 0.13 0.14 0.14 0.14 0.14 0.15 0.15 0.15 0.14 0.14 0.15 0.14 0.14 0.14 0.13 0.13 0.13 0.13 0.12 0.12 0.13 0.13 0.13 0.13 0.13 0.13 0.13 0.13 0.13 0.13 0.13
0.15 0.15 0.15 0.15 0.14 0.14 0.14 0.14 0.14 0.15 0.15 0.14 0.14 0.14 0.13 0.13 0.13 0.13 0.13 0.13 0.12 0.12 0.12 0.12 0.12 0.11 0.11 0.11 0.11 0.11 0.11 0.11 0.11 0.11 0.11 0.12 0.12 0.13 0.13 0.13 0.13 0.13 0.12 0.12 0.12 0.12 0.12 0.12 0.12 0.12 0.12 0.13 0.14 0.15 0.15 0.14 0.14 0.14 0.14 0.14 0.14 0.14 0.13 0.13 0.12 0.12 0.12 0.12 0.12 0.12 0.12 0.12 0.12 0.12 0.12 0.12 0.12 0.13 0.13 0.13 0.13 0.13 0.13 0.13 0.13
0.15 0.15 0.15 0.14 0.14 0.14 0.14 0.14 0.13 0.13 0.14 0.14 0.13 0.13 0.13 0.13 0.12 0.12 0.12 0.12 0.12 0.11 0.11 0.11 0.11 0.10 0.10 0.10 0.10 0.10 0.11 0.11 0.11 0.11 0.11 0.11 0.11 0.12 0.12 0.12 0.11 0.11 0.10 0.10 0.11 0.10 0.10 0.11 0.12 0.12 0.13 0.13 0.13 0.13 0.13 0.13 0.13 0.13 0.13 0.13 0.13 0.12 0.12 0.12 0.11 0.11 0.11 0.11 0.11 0.11 0.11 0.12 0.12 0.12 0.13 0.13 0.12 0.13 0.12 0.12 0.13 0.13 0.13 0.13 0.12
0.14 0.14 0.14 0.14 0.13 0.13 0.13 0.13 0.13 0.13 0.13 0.13 0.13 0.13 0.12 0.12 0.12 0.11 0.11 0.11 0.11 0.11 0.10 0.10 0.10 0.10 0.10 0.10 0.10 0.10 0.10 0.10 0.11 0.11 0.11 0.11 0.11 0.11 0.11 0.11 0.11 0.11 0.12 0.11 0.12 0.12 0.12 0.12 0.12 0.11 0.11 0.11 0.11 0.11 0.11 0.11 0.11 0.11 0.11 0.11 0.11 0.11 0.11 0.10 0.10 0.10 0.10 0.10 0.10 0.10 0.11 0.11 0.11 0.12 0.12 0.12 0.12 0.11 0.12 0.11 0.11 0.11 0.11 0.11 0.10
0.14 0.14 0.14 0.13 0.13 0.13 0.13 0.12 0.12 0.12 0.12 0.12 0.12 0.12 0.12 0.12 0.11 0.11 0.11 0.10 0.10 0.10 0.10 0.10 0.10 0.10 0.09 0.10 0.10 0.10 0.10 0.10 0.10 0.10 0.10 0.10 0.11 0.11 0.11 0.11 0.12 0.12 0.11 0.11 0.11 0.11 0.11 0.11 0.11 0.11 0.11 0.11 0.11 0.11 0.10 0.10 0.10 0.10 0.10 0.10 0.10 0.10 0.10 0.10 0.09 0.09 0.09 0.09 0.09 0.10 0.10 0.10 0.11 0.11 0.11 0.11 0.11 0.11 0.11 0.11 0.11 0.10 0.10 0.10 0.10
0.14 0.13 0.13 0.13 0.12 0.12 0.12 0.12 0.12 0.12 0.12 0.12 0.12 0.12 0.12 0.11 0.11 0.10 0.10 0.10 0.10 0.10 0.10 0.10 0.09 0.10 0.10 0.10 0.10 0.09 0.09 0.10 0.10 0.10 0.10 0.11 0.11 0.11 0.11 0.11 0.11 0.10 0.10 0.10 0.10 0.10 0.10 0.10 0.10 0.10 0.10 0.10 0.10 0.10 0.10 0.10 0.10 0.10 0.10 0.10 0.10 0.10 0.10 0.10 0.10 0.10 0.09 0.09 0.09 0.09 0.09 0.09 0.09 0.09 0.09 0.09 0.09 0.10 0.10 0.10 0.10 0.10 0.10 0.10 0.09
0.13 0.13 0.13 0.12 0.12 0.12 0.12 0.12 0.12 0.12 0.12 0.12 0.12 0.11 0.11 0.11 0.10 0.10 0.11 0.11 0.11 0.10 0.10 0.10 0.10 0.10 0.10 0.10 0.09 0.09 0.09 0.09 0.09 0.10 0.11 0.11 0.11 0.11 0.11 0.11 0.11 0.11 0.11 0.11 0.11 0.11 0.10 0.10 0.10 0.10 0.10 0.10 0.09 0.09 0.09 0.09 0.09 0.09 0.09 0.10 0.10 0.10 0.10 0.10 0.09 0.09 0.09 0.09 0.09 0.09 0.09 0.09 0.09 0.09 0.09 0.09 0.09 0.09 0.09 0.09 0.09 0.09 0.09 0.09 0.08
0.13 0.12 0.12 0.12 0.12 0.12 0.12 0.12 0.12 0.12 0.11 0.11 0.11 0.11 0.11 0.11 0.11 0.10 0.10 0.11 0.11 0.11 0.11 0.10 0.11 0.11 0.11 0.10 0.10 0.09 0.09 0.09 0.10 0.11 0.11 0.11 0.12 0.11 0.11 0.11 0.11 0.11 0.11 0.11 0.11 0.10 0.10 0.09 0.09 0.09 0.09 0.09 0.08 0.08 0.08 0.08 0.08 0.08 0.09 0.09 0.09 0.09 0.09 0.09 0.09 0.09 0.09 0.09 0.09 0.09 0.09 0.09 0.09 0.09 0.08 0.08 0.08 0.09 0.09 0.09 0.08 0.08 0.08 0.08 0.08
0.12 0.12 0.12 0.12 0.12 0.12 0.12 0.12 0.12 0.11 0.11 0.11 0.10 0.10 0.10 0.10 0.11 0.11 0.11 0.11 0.11 0.11 0.11 0.12 0.12 0.12 0.11 0.10 0.10 0.11 0.10 0.10 0.10 0.10 0.11 0.11 0.11 0.10 0.10 0.09 0.09 0.10 0.10 0.09 0.08 0.08 0.07 0.07 0.07 0.07 0.07 0.07 0.07 0.07 0.07 0.07 0.07 0.07 0.07 0.07 0.07 0.07 0.07 0.07 0.07 0.07 0.07 0.07 0.07 0.07 0.07 0.07 0.07 0.07 0.07 0.07 0.07 0.08 0.08 0.08 0.08 0.08 0.08 0.07 0.07
0.12 0.12 0.12 0.11 0.12 0.12 0.11 0.11 0.11 0.11 0.10 0.10 0.10 0.09 0.09 0.09 0.10 0.10 0.10 0.10 0.10 0.10 0.11 0.11 0.11 0.11 0.11 0.10 0.10 0.09 0.09 0.09 0.09 0.09 0.09 0.09 0.08 0.08 0.08 0.09 0.09 0.08 0.08 0.07 0.07 0.06 0.06 0.06 0.06 0.06 0.06 0.05 0.05 0.05 0.05 0.05 0.06 0.06 0.06 0.06 0.06 0.06 0.06 0.06 0.06 0.07 0.07 0.07 0.07 0.07 0.07 0.07 0.07 0.07 0.07 0.07 0.07 0.07 0.07 0.07 0.07 0.07 0.07 0.07 0.07
0.12 0.11 0.11 0.11 0.11 0.11 0.11 0.11 0.10 0.10 0.10 0.09 0.09 0.09 0.09 0.09 0.08 0.09 0.09 0.10 0.10 0.10 0.10 0.10 0.10 0.09 0.09 0.09 0.09 0.08 0.08 0.08 0.08 0.08 0.08 0.07 0.07 0.08 0.08 0.08 0.07 0.07 0.07 0.06 0.05 0.05 0.05 0.05 0.05 0.05 0.05 0.05 0.05 0.05 0.05 0.05 0.05 0.05 0.05 0.06 0.06 0.06 0.06 0.06 0.06 0.06 0.06 0.06 0.06 0.06 0.06 0.07 0.07 0.07 0.07 0.07 0.07 0.06 0.07 0.07 0.07 0.07 0.07 0.06 0.06
0.12 0.11 0.11 0.11 0.11 0.11 0.11 0.10 0.10 0.10 0.09 0.09 0.09 0.09 0.09 0.09 0.09 0.08 0.08 0.08 0.09 0.09 0.09 0.08 0.08 0.07 0.07 0.07 0.07 0.07 0.07 0.07 0.07 0.07 0.06 0.07 0.07 0.07 0.07 0.07 0.06 0.06 0.06 0.05 0.05 0.05 0.05 0.05 0.05 0.05 0.05 0.05 0.05 0.05 0.05 0.05 0.06 0.06 0.06 0.06 0.06 0.06 0.06 0.06 0.06 0.06 0.06 0.06 0.06 0.06 0.07 0.07 0.07 0.07 0.06 0.07 0.07 0.06 0.06 0.06 0.06 0.06 0.06 0.06 0.06
0.11 0.11 0.11 0.11 0.11 0.10 0.10 0.10 0.09 0.09 0.09 0.09 0.09 0.09 0.09 0.09 0.09 0.08 0.08 0.08 0.07 0.07 0.06 0.07 0.07 0.07 0.07 0.07 0.07 0.07 0.07 0.06 0.06 0.06 0.06 0.07 0.07 0.06 0.06 0.05 0.05 0.05 0.05 0.05 0.05 0.04 0.04 0.05 0.05 0.05 0.05 0.05 0.06 0.06 0.06 0.06 0.06 0.06 0.06 0.06 0.06 0.06 0.06 0.06 0.06 0.06 0.06 0.06 0.06 0.06 0.07 0.07 0.07 0.07 0.07 0.06 0.06 0.06 0.06 0.06 0.06 0.06 0.06 0.06 0.06
0.11 0.11 0.11 0.11 0.10 0.10 0.10 0.09 0.09 0.09 0.09 0.09 0.09 0.09 0.09 0.09 0.09 0.08 0.08 0.07 0.07 0.06 0.06 0.06 0.06 0.07 0.07 0.07 0.06 0.06 0.06 0.06 0.06 0.06 0.06 0.06 0.06 0.06 0.05 0.05 0.04 0.04 0.04 0.04 0.05 0.05 0.05 0.05 0.06 0.06 0.06 0.06 0.06 0.06 0.06 0.06 0.06 0.06 0.07 0.07 0.06 0.07 0.07 0.07 0.07 0.07 0.07 0.07 0.07 0.07 0.07 0.07 0.06 0.06 0.06 0.06 0.06 0.06 0.05 0.05 0.05 0.05 0.05 0.05 0.05
0.11 0.11 0.10 0.10 0.10 0.10 0.09 0.09 0.09 0.09 0.09 0.09 0.09 0.09 0.09 0.09 0.08 0.08 0.07 0.07 0.06 0.06 0.06 0.06 0.06 0.06 0.06 0.06 0.06 0.06 0.06 0.06 0.06 0.06 0.06 0.06 0.05 0.05 0.05 0.04 0.04 0.04 0.04 0.05 0.05 0.05 0.06 0.06 0.06 0.06 0.06 0.06 0.06 0.06 0.06 0.06 0.06 0.06 0.07 0.07 0.07 0.06 0.06 0.06 0.06 0.06 0.06 0.06 0.06 0.06 0.05 0.05 0.05 0.05 0.05 0.04 0.04 0.04 0.04 0.04 0.04 0.04 0.04 0.04 0.04
0.11 0.10 0.10 0.10 0.10 0.09 0.09 0.09 0.09 0.09 0.09 0.09 0.09 0.09 0.09 0.08 0.07 0.07 0.07 0.06 0.06 0.06 0.06 0.06 0.06 0.06 0.06 0.06 0.06 0.06 0.05 0.05 0.05 0.05 0.05 0.05 0.05 0.05 0.05 0.05 0.05 0.05 0.05 0.05 0.06 0.06 0.06 0.06 0.06 0.06 0.06 0.06 0.06 0.06 0.06 0.06 0.06 0.06 0.06 0.06 0.06 0.06 0.06 0.06 0.06 0.05 0.05 0.05 0.05 0.04 0.04 0.04 0.04 0.04 0.04 0.04 0.03 0.03 0.03 0.03 0.03 0.03 0.03 0.03 0.03
0.10 0.10 0.10 0.10 0.10 0.10 0.09 0.09 0.09 0.09 0.09 0.09 0.09 0.09 0.08 0.07 0.07 0.06 0.06 0.06 0.06 0.06 0.06 0.06 0.06 0.06 0.06 0.06 0.05 0.05 0.05 0.05 0.05 0.05 0.05 0.05 0.05 0.05 0.05 0.05 0.05 0.05 0.05 0.06 0.06 0.06 0.06 0.06 0.06 0.06 0.06 0.06 0.06 0.06 0.06 0.06 0.06 0.06 0.06 0.06 0.05 0.05 0.05 0.05 0.04 0.04 0.04 0.04 0.04 0.04 0.03 0.03 0.03 0.03 0.03 0.03 0.03 0.03 0.03 0.03 0.03 0.03 0.03 0.03 0.03
0.10 0.10 0.10 0.10 0.10 0.10 0.09 0.09 0.09 0.09 0.09 0.09 0.09 0.08 0.07 0.07 0.07 0.06 0.06 0.06 0.06 0.06 0.06 0.06 0.06 0.06 0.06 0.06 0.05 0.05 0.05 0.05 0.05 0.05 0.05 0.05 0.05 0.05 0.05 0.05 0.05 0.05 0.06 0.06 0.06 0.06 0.06 0.06 0.06 0.06 0.06 0.06 0.06 0.06 0.06 0.06 0.06 0.05 0.05 0.05 0.05 0.04 0.04 0.04 0.04 0.04 0.04 0.03 0.03 0.03 0.03 0.03 0.03 0.03 0.03 0.03 0.03 0.03 0.03 0.03 0.03 0.03 0.03 0.03 0.03
0.10 0.10 0.10 0.10 0.10 0.09 0.09 0.09 0.09 0.09 0.09 0.09 0.08 0.08 0.07 0.07 0.07 0.06 0.06 0.06 0.06 0.06 0.06 0.06 0.06 0.06 0.06 0.06 0.06 0.05 0.05 0.05 0.05 0.05 0.05 0.04 0.04 0.05 0.05 0.05 0.05 0.05 0.06 0.06 0.06 0.06 0.06 0.06 0.06 0.06 0.06 0.06 0.06 0.06 0.06 0.05 0.05 0.05 0.05 0.04 0.04 0.04 0.04 0.04 0.04 0.03 0.03 0.03 0.03 0.03 0.03 0.03 0.03 0.03 0.02 0.02 0.03 0.03 0.03 0.03 0.03 0.03 0.03 0.03 0.03
0.10 0.10 0.09 0.09 0.09 0.09 0.09 0.09 0.09 0.09 0.09 0.09 0.08 0.08 0.07 0.07 0.07 0.06 0.06 0.06 0.06 0.06 0.06 0.06 0.06 0.06 0.06 0.06 0.06 0.06 0.05 0.05 0.05 0.05 0.04 0.04 0.04 0.05 0.05 0.05 0.05 0.06 0.06 0.06 0.06 0.06 0.06 0.06 0.06 0.06 0.06 0.06 0.06 0.05 0.05 0.05 0.05 0.04 0.04 0.04 0.04 0.04 0.04 0.03 0.03 0.03 0.03 0.03 0.03 0.03 0.03 0.03 0.03 0.03 0.03 0.03 0.02 0.02 0.02 0.02 0.02 0.02 0.02 0.03 0.03
0.10 0.10 0.09 0.09 0.09 0.09 0.09 0.09 0.09 0.09 0.09 0.08 0.08 0.08 0.07 0.07 0.07 0.06 0.06 0.06 0.06 0.06 0.06 0.06 0.06 0.06 0.06 0.06 0.06 0.06 0.05 0.05 0.05 0.05 0.04 0.04 0.04 0.05 0.05 0.05 0.05 0.06 0.06 0.06 0.07 0.07 0.07 0.06 0.06 0.06 0.06 0.06 0.05 0.05 0.05 0.04 0.04 0.04 0.04 0.04 0.04 0.03 0.03 0.03 0.03 0.03 0.03 0.03 0.03 0.03 0.03 0.03 0.03 0.02 0.02 0.02 0.02 0.02 0.02 0.02 0.02 0.02 0.03 0.03 0.03
0.10 0.10 0.09 0.09 0.09 0.09 0.09 0.09 0.09 0.09 0.09 0.08 0.08 0.08 0.07 0.07 0.07 0.07 0.06 0.06 0.06 0.06 0.06 0.06 0.06 0.06 0.06 0.06 0.06 0.06 0.05 0.05 0.05 0.05 0.04 0.04 0.04 0.05 0.05 0.05 0.05 0.06 0.06 0.06 0.07 0.07 0.07 0.06 0.06 0.06 0.06 0.05 0.05 0.05 0.05 0.04 0.04 0.04 0.04 0.04 0.03 0.03 0.03 0.03 0.03 0.03 0.03 0.03 0.03 0.03 0.03 0.03 0.03 0.03 0.02 0.03 0.03 0.03 0.02 0.03 0.03 0.03 0.03 0.02 0.02
0.10 0.09 0.09 0.09 0.09 0.09 0.09 0.09 0.09 0.09 0.08 0.08 0.08 0.08 0.07 0.07 0.07 0.07 0.06 0.06 0.06 0.06 0.06 0.07 0.06 0.06 0.06 0.06 0.06 0.06 0.05 0.05 0.05 0.05 0.05 0.04 0.04 0.05 0.05 0.05 0.05 0.05 0.06 0.06 0.06 0.06 0.06 0.06 0.06 0.05 0.05 0.05 0.05 0.04 0.04 0.04 0.04 0.04 0.04 0.03 0.03 0.03 0.03 0.03 0.03 0.03 0.03 0.03 0.02 0.02 0.02 0.03 0.03 0.03 0.03 0.03 0.03 0.03 0.03 0.03 0.03 0.03 0.02 0.02 0.02
0.10 0.09 0.09 0.09 0.09 0.09 0.09 0.09 0.08 0.08 0.08 0.08 0.08 0.08 0.07 0.07 0.07 0.07 0.07 0.06 0.06 0.06 0.06 0.07 0.07 0.06 0.06 0.06 0.06 0.06 0.06 0.05 0.05 0.05 0.05 0.05 0.05 0.05 0.05 0.05 0.05 0.05 0.06 0.06 0.06 0.06 0.06 0.06 0.05 0.05 0.05 0.05 0.04 0.04 0.04 0.04 0.04 0.04 0.04 0.03 0.03 0.03 0.03 0.03 0.03 0.03 0.03 0.03 0.03 0.03 0.03 0.03 0.03 0.03 0.03 0.03 0.03 0.03 0.03 0.03 0.03 0.02 0.02 0.02 0.02
0.10 0.09 0.09 0.09 0.09 0.09 0.09 0.08 0.08 0.08 0.08 0.08 0.08 0.08 0.07 0.07 0.07 0.07 0.07 0.07 0.07 0.06 0.06 0.07 0.06 0.06 0.06 0.06 0.06 0.06 0.06 0.06 0.05 0.05 0.05 0.05 0.05 0.05 0.05 0.05 0.05 0.05 0.06 0.06 0.06 0.06 0.06 0.05 0.05 0.05 0.05 0.04 0.04 0.04 0.04 0.04 0.04 0.04 0.04 0.03 0.03 0.03 0.03 0.03 0.03 0.03 0.03 0.03 0.03 0.03 0.03 0.03 0.03 0.03 0.03 0.03 0.03 0.03 0.03 0.03 0.03 0.02 0.03 0.03 0.02
0.09 0.09 0.09 0.09 0.09 0.09 0.08 0.08 0.08 0.08 0.08 0.08 0.08 0.08 0.08 0.07 0.07 0.07 0.07 0.07 0.07 0.07 0.07 0.07 0.06 0.06 0.06 0.06 0.06 0.06 0.06 0.06 0.05 0.05 0.05 0.05 0.05 0.05 0.05 0.05 0.05 0.05 0.05 0.06 0.06 0.05 0.05 0.05 0.05 0.05 0.04 0.04 0.04 0.04 0.04 0.04 0.04 0.04 0.03 0.03 0.03 0.03 0.03 0.03 0.03 0.03 0.03 0.03 0.03 0.03 0.03 0.03 0.02 0.02 0.03 0.03 0.03 0.03 0.03 0.03 0.03 0.03 0.03 0.03 0.03
0.09 0.09 0.09 0.09 0.08 0.08 0.08 0.08 0.08 0.08 0.08 0.08 0.08 0.08 0.08 0.07 0.07 0.07 0.07 0.07 0.07 0.07 0.07 0.07 0.06 0.06 0.06 0.06 0.06 0.06 0.06 0.06 0.06 0.05 0.05 0.05 0.05 0.05 0.05 0.05 0.05 0.05 0.05 0.05 0.05 0.05 0.05 0.05 0.05 0.04 0.04 0.04 0.04 0.04 0.04 0.04 0.03 0.03 0.03 0.03 0.03 0.03 0.03 0.03 0.03 0.03 0.03 0.03 0.03 0.03 0.03 0.03 0.03 0.03 0.03 0.03 0.03 0.03 0.03 0.03 0.03 0.03 0.03 0.03 0.03
0.09 0.09 0.09 0.08 0.08 0.08 0.08 0.08 0.08 0.08 0.08 0.08 0.08 0.08 0.08 0.08 0.08 0.07 0.07 0.07 0.07 0.07 0.07 0.07 0.06 0.06 0.06 0.06 0.06 0.06 0.06 0.06 0.06 0.05 0.05 0.05 0.05 0.05 0.05 0.05 0.05 0.05 0.05 0.05 0.05 0.05 0.05 0.04 0.04 0.04 0.04 0.04 0.04 0.04 0.04 0.04 0.03 0.03 0.03 0.03 0.03 0.03 0.03 0.03 0.03 0.03 0.03 0.03 0.03 0.03 0.03 0.03 0.03 0.03 0.03 0.03 0.03 0.03 0.03 0.03 0.03 0.03 0.03 0.03 0.03
0.09 0.09 0.09 0.08 0.08 0.08 0.08 0.08 0.08 0.08 0.08 0.08 0.08 0.08 0.08 0.08 0.08 0.07 0.07 0.07 0.07 0.07 0.07 0.07 0.06 0.06 0.06 0.06 0.06 0.06 0.06 0.06 0.06 0.06 0.05 0.05 0.05 0.05 0.05 0.05 0.05 0.05 0.05 0.05 0.05 0.05 0.04 0.04 0.04 0.04 0.04 0.04 0.04 0.04 0.04 0.03 0.03 0.03 0.03 0.03 0.03 0.03 0.03 0.03 0.03 0.03 0.03 0.03 0.03 0.03 0.03 0.03 0.03 0.03 0.03 0.03 0.03 0.03 0.03 0.03 0.03 0.03 0.03 0.03 0.03
Wind_Speed
36 36 36 36 36 36 36 37 38 39 40 42 43 43 44 44 44 45 45 45 45 45 45 45 45 45 45 45 45 45 46 46 47 48 49 49 50 50 50 50 51 51 51 52 51 52 52 52 52 52 52 53 53 53 53 53 54 54 54 55 55 56 56 56 56 56 55 55 54 54 55 55 55 55 55 55 55 55 55 55 55 55 54 54 53
36 37 37 37 37 38 38 38 38 39 39 40 41 42 43 43 44 44 45 45 45 46 46 46 46 46 46 46 46 46 47 47 48 49 50 50 50 50 51 51 51 52 52 52 52 52 52 53 53 53 53 53 53 54 54 54 54 55 55 55 55 56 56 57 57 57 56 56 56 56 56 56 56 56 56 56 56 56 55 55 55 55 55 54 54
37 37 37 38 38 38 39 39 40 40 40 40 40 41 42 42 43 44 45 45 45 46 46 46 46 47 47 47 47 48 48 49 49 50 51 51 51 51 51 52 52 52 52 52 52 52 53 53 53 53 53 54 54 54 54 55 55 55 55 56 56 56 56 57 57 57 57 57 56 56 56 56 56 56 56 56 56 56 56 56 55 55 55 55 55
38 38 38 38 38 39 39 40 40 40 40 41 41 41 42 42 43 43 44 45 45 46 46 47 47 47 48 48 49 49 50 50 50 51 52 52 52 52 52 52 52 52 53 53 53 53 53 53 53 53 53 54 54 54 55 55 55 55 56 56 56 56 56 56 57 57 57 56 56 56 56 56 57 56 56 56 56 56 56 56 55 55 55 55 55
39 39 39 39 39 39 39 40 40 41 41 42 42 42 43 43 43 44 44 45 45 46 47 47 48 49 49 50 50 51 51 51 52 52 53 53 53 52 52 52 53 53 53 53 53 53 53 54 53 53 54 54 54 54 55 55 55 55 55 55 55 55 55 56 56 56 56 56 56 56 56 56 56 56 56 56 56 56 56 56 56 56 56 56 55
39 40 40 40 40 40 40 41 41 41 42 42 43 43 43 44 44 45 45 45 46 47 47 48 49 50 50 51 51 52 52 52 53 53 53 52 52 52 52 52 53 53 53 53 53 53 54 54 54 54 54 54 54 54 54 55 55 55 55 55 55 55 55 55 55 55 56 56 56 55 56 56 56 56 56 56 56 56 56 56 56 56 56 55 56
39 39 40 40 40 41 41 42 42 42 42 42 43 43 44 44 44 44 45 45 46 47 47 48 49 50 50 51 51 51 51 52 52 52 52 51 51 52 52 52 52 53 53 53 53 53 54 54 54 54 54 54 54 54 54 54 54 54 54 54 54 54 54 54 54 55 55 55 55 55 56 56 56 56 56 56 56 56 56 55 55 56 56 56 56
39 39 40 40 40 40 40 41 42 42 42 43 43 44 44 44 44 44 45 45 45 46 47 47 48 48 49 49 50 50 50 50 50 50 50 51 51 51 52 52 52 52 53 53 53 53 53 53 53 53 53 54 54 53 53 53 54 54 54 53 53 54 54 54 54 54 55 55 55 55 55 55 55 55 55 54 55 55 55 55 55 56 56 56 57
38 39 39 39 40 40 40 40 40 41 42 42 43 44 44 44 45 45 45 45 46 46 46 47 47 47 48 48 48 49 49 49 49 49 49 50 50 51 51 52 52 52 52 52 52 52 52 53 53 53 53 53 53 53 53 53 53 53 53 53 53 53 53 53 54 54 54 54 54 54 54 54 54 54 54 54 54 54 55 55 56 56 56 57 57
38 38 38 39 39 40 40 40 40 40 41 41 42 42 43 44 45 45 45 46 46 46 46 47 47 47 47 48 48 48 47 48 48 48 49 49 50 50 51 51 52 52 52 52 52 52 52 52 52 52 52 52 52 53 53 53 53 53 53 53 53 53 53 53 53 53 53 53 53 53 53 53 53 53 53 54 54 54 55 55 56 56 56 57 57
38 38 38 38 38 39 40 41 41 41 41 41 41 41 42 43 44 44 45 45 46 46 46 46 46 47 47 47 47 47 47 47 47 48 48 49 49 50 50 51 51 51 51 51 51 51 51 51 51 51 52 52 52 52 52 53 53 53 53 53 53 53 53 52 52 52 52 52 52 52 53 53 53 53 53 53 54 54 55 55 56 56 56 56 56
38 38 38 38 38 39 39 40 40 41 41 41 41 41 42 42 43 43 44 44 45 45 45 45 45 46 46 46 46 46 46 46 47 47 48 48 49 49 49 49 50 50 50 50 51 50 50 50 50 50 51 51 51 51 51 52 52 52 52 52 52 53 53 52 52 52 52 52 52 52 52 52 52 53 53 53 53 54 54 55 55 56 56 56 56
38 38 38 38 38 38 39 39 40 40 41 41 41 41 42 42 42 43 43 44 44 45 45 45 45 45 45 45 45 45 45 46 46 46 46 47 47 47 47 48 48 48 48 49 49 49 49 49 49 49 49 49 49 50 50 50 51 51 51 51 52 52 52 52 52 52 52 52 52 52 52 52 52 52 52 52 53 53 54 54 55 56 56 56 56
38 38 38 38 38 38 38 39 39 40 40 41 41 41 42 42 42 43 43 44 44 44 45 45 45 45 45 45 44 44 44 44 44 44 45 45 45 45 46 46 46 46 46 46 46 47 47 47 47 47 47 48 48 48 49 49 49 50 50 51 51 51 51 52 52 51 51 51 52 52 51 51 52 52 52 52 53 53 54 54 55 55 56 56 55
38 38 38 38 37 37 37 38 38 39 39 40 41 41 41 42 42 42 43 43 44 44 44 45 45 45 44 44 44 44 43 43 43 43 43 43 44 44 44 44 44 45 45 45 45 45 45 45 46 46 46 46 47 47 47 47 48 48 49 49 49 49 50 50 50 50 51 51 51 51 51 51 52 52 52 53 53 54 54 54 54 53 53 53 53
38 38 38 37 37 37 37 37 37 37 38 39 40 40 41 42 42 42 43 43 43 44 44 44 44 44 44 44 44 44 43 43 42 42 42 42 43 43 43 43 43 43 43 43 43 44 44 45 45 45 45 46 46 46 47 46 47 47 47 47 48 48 49 49 50 51 51 51 51 51 52 52 52 52 52 53 53 53 52 52 52 51 52 52 52
38 38 37 37 37 37 37 37 37 36 37 37 38 38 39 40 41 41 42 43 43 43 44 44 44 44 44 44 44 44 44 43 42 42 42 42 42 42 42 42 42 42 42 42 43 43 43 44 44 45 45 45 46 46 46 46 46 47 47 47 48 48 48 49 49 50 51 52 52 52 52 53 53 53 52 52 52 51 50 51 50 50 51 51 51
37 37 37 36 36 36 36 36 36 36 35 36 36 36 37 37 38 39 40 40 41 42 42 43 43 43 43 43 43 43 43 43 42 42 42 42 42 42 42 42 42 43 43 43 43 43 43 43 43 44 44 44 45 46 46 46 47 47 47 48 48 49 48 48 49 49 50 51 51 51 51 51 51 51 51 51 51 50 50 50 50 50 50 50 50
36 36 36 36 35 35 35 35 35 35 34 34 34 34 35 35 35 36 36 37 37 38 39 39 40 41 41 41 41 41 42 42 42 41 42 41 42 42 42 42 42 43 43 43 44 44 44 44 44 44 44 44 45 45 45 46 46 47 47 48 48 48 48 48 48 49 49 49 49 49 49 49 49 49 49 50 50 50 50 50 49 50 50 51 50
35 35 35 34 34 34 34 34 34 33 33 33 33 33 33 33 33 33 33 33 33 34 34 35 35 36 37 38 39 39 40 41 41 41 41 41 42 42 42 42 42 43 43 43 44 44 44 44 44 44 45 45 45 45 45 46 46 45 46 46 47 47 47 47 47 47 47 47 47 48 48 48 48 49 49 49 50 50 51 51 51 51 52 52 51
34 34 34 33 33 33 33 32 32 32 31 31 31 31 31 31 30 30 30 30 30 30 30 31 31 32 33 33 34 35 36 37 38 39 39 40 40 40 40 41 41 41 41 42 42 42 42 42 42 43 43 43 43 44 44 44 44 44 44 44 45 45 45 45 46 46 46 46 46 47 47 48 48 49 49 50 50 51 51 52 53 53 53 53 53
33 33 32 32 32 32 31 31 31 30 30 29 29 29 29 28 28 27 27 27 27 27 27 28 28 29 29 30 31 31 32 33 34 35 35 36 36 37 37 37 38 38 38 38 38 38 38 38 38 39 39 39 40 40 41 41 41 41 42 42 43 43 43 43 43 44 45 45 45 46 46 47 48 48 49 50 50 51 51 52 53 54 54 54 54
32 32 31 31 31 30 30 29 29 28 28 28 27 27 27 27 26 26 25 25 25 25 25 25 26 26 26 27 27 28 28 29 29 30 31 31 31 32 32 33 33 33 33 34 34 34 34 34 35 35 36 36 37 37 37 38 38 38 39 39 40 40 41 41 42 43 44 44 45 46 47 47 48 48 49 50 50 51 51 52 53 54 54 55 55
31 31 31 30 29 29 28 28 27 27 26 26 26 26 26 26 25 25 24 24 24 23 23 24 24 24 24 24 25 25 25 26 26 27 27 28 28 29 29 29 30 30 30 31 31 32 32 33 33 34 34 35 35 35 35 36 36 37 38 39 39 40 41 42 43 43 44 44 45 46 46 47 48 48 49 50 50 51 52 52 53 54 54 55 55
30 30 29 29 28 27 27 27 26 26 25 25 25 25 25 25 25 24 24 24 24 23 23 23 23 23 23 23 23 24 24 24 25 25 26 27 27 27 28 28 28 29 29 30 30 31 31 32 33 33 34 34 35 36 36 37 38 39 40 40 41 42 43 43 44 45 45 46 46 47 47 47 48 48 49 49 49 50 51 51 52 53 53 54 55
29 29 28 27 27 26 26 26 25 25 24 24 24 24 24 24 24 24 24 24 24 23 23 23 23 23 23 23 23 23 24 24 24 25 26 26 26 27 27 27 28 28 29 30 30 31 32 32 33 33 34 35 36 37 38 39 39 40 41 42 43 44 45 45 46 47 47 48 48 49 49 49 49 49 50 50 50 51 51 51 52 52 52 53 54
28 27 26 26 25 25 25 25 24 24 23 23 23 23 23 23 23 23 23 23 23 23 23 22 22 22 22 23 23 23 24 24 25 25 25 26 26 27 27 27 28 29 29 30 31 31 32 32 33 34 34 35 36 37 38 39 40 41 42 43 44 45 45 46 47 47 48 49 49 50 50 50 50 51 51 52 52 52 53 53 54 54 54 54 55
26 25 25 24 24 24 24 24 23 23 22 22 22 22 22 22 22 22 22 22 22 22 22 22 22 22 22 22 23 23 24 24 24 25 25 26 26 27 27 28 28 29 30 30 31 31 32 33 34 34 35 36 37 38 39 39 40 41 42 43 44 45 45 46 47 47 48 49 49 50 50 50 51 51 52 52 53 53 53 54 54 55 55 55 56
25 24 24 23 23 23 22 22 22 22 21 21 21 21 21 21 21 21 21 21 21 21 21 21 21 21 22 22 23 23 24 24 24 25 26 26 27 27 28 28 29 30 31 31 32 33 34 34 35 36 36 37 38 39 39 40 41 42 42 43 44 44 45 46 47 47 48 48 49 50 50 50 51 51 51 52 52 52 53 53 54 54 55 55 56
24 23 23 22 22 22 21 21 21 21 20 20 20 20 20 20 20 20 20 20 20 20 21 21 21 21 21 22 22 23 24 24 25 26 27 27 27 28 29 30 31 32 33 33 34 34 34 35 36 36 37 38 39 39 40 40 41 42 42 43 44 44 45 45 46 47 47 48 48 49 49 50 50 50 51 51 52 52 52 52 53 53 54 54 55
23 22 22 21 21 20 20 20 20 20 20 19 19 19 19 19 19 19 19 19 19 20 20 20 20 20 21 22 23 24 25 25 26 27 28 28 29 30 31 32 32 32 32 33 33 34 34 35 36 36 36 37 38 38 39 39 40 40 41 41 41 42 42 43 44 44 45 45 46 47 47 48 48 49 49 50 50 50 51 51 52 52 53 53 54
22 21 20 20 20 19 19 19 19 19 19 18 18 18 18 18 18 18 18 18 19 20 20 20 21 21 22 23 24 24 25 26 27 28 28 29 30 31 32 31 31 31 32 32 33 33 34 34 34 35 35 35 35 35 35 35 35 35 36 36 36 36 37 37 37 38 39 39 40 41 41 42 43 44 45 46 47 47 48 49 49 50 51 51 52
20 20 19 19 19 19 19 18 18 18 18 17 17 17 17 17 17 18 18 19 19 20 20 21 22 22 23 24 24 25 26 27 28 28 29 30 31 31 31 31 31 31 32 32 32 32 32 32 32 32 32 31 31 31 30 30 30 30 30 31 31 32 32 33 33 34 34 35 35 36 37 37 38 39 40 41 41 42 43 44 45 46 47 47 48
19 19 18 18 18 18 18 17 17 17 17 17 16 16 16 17 17 18 19 19 20 20 20 21 22 23 24 25 25 26 27 28 29 29 30 30 30 30 30 30 30 30 30 30 30 30 30 29 29 28 28 27 27 27 27 27 28 28 28 28 29 29 30 31 31 32 33 33 34 35 36 36 37 37 38 38 39 39 40 40 41 42 43 44 44
18 18 18 18 18 17 17 16 16 16 16 16 16 16 17 17 18 18 19 20 20 21 22 22 23 24 25 25 26 27 28 28 29 29 29 29 29 29 29 29 29 29 28 28 27 27 26 26 25 25 25 25 25 25 26 26 26 27 27 28 28 28 29 30 30 31 32 33 34 34 35 36 36 37 37 38 38 39 39 40 40 41 41 42 43
16 16 17 17 17 16 16 16 15 15 16 16 16 17 17 18 18 19 19 20 21 22 23 23 24 25 26 26 27 27 27 27 28 28 28 28 28 28 27 27 27 26 26 25 24 23 23 23 23 23 23 23 24 24 25 25 26 26 27 27 27 28 29 29 30 31 32 32 33 34 34 35 36 36 37 38 38 39 39 40 40 41 41 42 42
15 16 16 16 16 15 15 15 15 15 16 16 17 17 18 18 19 19 20 21 21 22 23 24 25 25 26 26 26 26 27 27 27 27 27 27 26 26 26 25 25 24 23 22 22 22 21 22 22 22 23 23 23 24 24 25 25 26 26 27 27 28 29 29 30 31 31 32 33 33 34 35 35 36 37 37 38 38 39 39 40 41 41 42 43
15 15 15 15 15 15 15 15 15 15 16 16 17 17 18 18 19 19 20 21 22 23 24 24 25 25 25 25 25 26 26 26 26 26 26 26 25 25 24 24 23 22 21 21 21 21 21 21 22 22 22 22 23 23 23 24 24 25 26 26 27 28 28 29 30 30 31 32 33 33 34 34 35 35 36 36 37 37 38 38 39 40 40 41 42
14 14 15 15 15 15 15 15 15 16 16 17 17 17 18 19 19 20 21 22 22 23 24 24 24 25 25 25 25 25 25 25 25 25 25 25 24 24 23 22 21 21 20 20 20 20 21 21 21 21 21 21 22 22 23 23 24 25 25 26 27 28 28 29 30 30 31 32 33 33 34 34 34 34 35 35 36 36 37 37 38 39 40 40 41
14 14 14 15 15 15 15 15 16 16 17 17 18 18 19 19 20 21 21 22 23 23 23 24 24 25 25 25 25 25 25 25 25 25 25 24 24 23 22 21 20 20 20 20 20 20 20 20 20 20 20 20 21 22 22 23 24 24 25 26 27 28 28 29 30 30 31 32 32 32 32 33 33 33 33 34 35 35 36 37 37 38 39 39 40
14 14 15 15 15 16 16 16 17 17 17 18 19 19 20 20 21 21 22 22 23 23 24 24 24 24 25 25 25 25 25 25 25 25 24 24 23 22 21 20 20 20 19 19 19 19 19 19 19 19 20 20 21 21 22 23 24 24 25 26 27 27 28 29 30 30 31 31 31 31 31 31 32 32 33 33 34 34 35 36 36 36 37 37 37
15 15 15 16 16 16 17 17 18 18 18 19 19 20 20 21 21 22 22 23 23 24 24 24 24 25 25 25 25 25 25 25 25 24 24 23 22 22 21 20 20 19 19 19 19 19 19 19 19 20 20 20 21 22 22 23 24 25 25 26 27 28 28 29 29 30 30 30 30 30 30 30 31 31 32 32 33 33 33 34 34 34 34 34 34
16 16 16 16 17 17 18 18 18 19 19 20 20 21 21 22 22 23 23 23 24 24 24 25 25 25 25 25 25 25 25 24 24 24 23 22 22 21 20 20 20 19 19 19 19 19 19 19 20 20 21 21 22 22 23 23 24 25 25 26 27 28 28 29 29 29 29 29 29 29 29 29 30 30 30 31 31 31 31 31 30 30 30 29 29
16 17 17 17 18 18 19 19 19 20 20 21 21 22 22 23 23 23 24 24 24 25 25 25 25 25 25 25 25 25 24 24 24 23 22 22 21 21 20 20 20 20 19 19 19 19 19 19 20 20 21 21 22 22 23 23 24 25 26 26 27 27 28 28 28 28 28 28 27 27 27 28 27 27 28 28 28 27 27 27 26 26 26 26 25
17 18 18 18 19 19 20 20 20 21 21 22 22 23 23 23 24 24 24 25 25 25 25 25 25 25 25 25 25 24 24 24 23 23 22 22 21 21 20 20 20 20 20 19 19 19 19 20 20 21 21 22 22 22 23 23 24 25 26 26 26 26 26 26 26 26 26 26 25 25 25 25 25 25 25 25 24 24 24 23 23 23 23 23 23
18 19 19 19 20 20 21 21 21 21 22 23 23 24 24 24 25 25 25 25 25 25 25 25 25 25 25 25 25 25 24 24 23 22 22 21 21 20 20 20 20 20 20 19 19 19 19 20 20 21 21 22 22 22 23 23 24 25 25 25 25 25 25 25 25 24 24 24 23 23 22 22 22 22 22 22 22 21 21 20 20 20 20 20 20
19 20 20 20 21 21 21 22 22 22 23 23 24 24 25 25 25 25 26 26 26 26 26 26 25 25 25 25 25 24 24 24 23 22 21 21 21 20 20 20 20 20 20 20 19 19 19 20 20 21 21 21 21 22 22 23 23 24 24 24 24 24 24 24 23 23 22 22 21 20 20 20 20 20 20 20 19 19 18 18 18 17 17 17 17
20 21 21 21 22 22 22 22 23 23 24 24 24 25 25 26 26 26 26 26 26 26 26 26 26 26 25 25 25 24 24 23 23 22 21 21 20 20 20 20 19 19 19 19 19 19 19 19 20 20 20 20 21 21 21 22 22 23 23 23 23 23 22 22 21 21 20 20 19 18 18 18 18 18 18 18 17 17 17 16 16 15 15 15 15
22 22 22 22 23 23 23 23 23 24 24 24 25 26 26 26 27 27 27 27 27 27 27 27 26 26 26 25 25 24 24 23 23 22 21 20 20 19 19 19 19 19 19 19 19 19 19 19 19 19 19 20 20 20 21 21 22 22 22 22 21 21 21 20 20 19 18 18 17 17 17 17 16 16 16 16 16 15 15 15 14 14 14 14 14
23 23 23 23 23 23 24 24 24 24 25 25 26 26 27 27 27 27 27 28 28 28 27 27 27 27 26 26 25 25 24 23 22 21 20 20 19 19 19 18 18 18 18 18 18 18 18 18 18 18 18 19 19 19 20 20 21 20 20 20 20 19 19 19 18 17 16 16 15 15 15 15 15 15 14 14 14 14 14 13 13 13 13 13 13
24 24 24 24 24 24 24 25 25 25 26 26 26 27 27 27 28 28 28 28 28 28 28 28 27 27 26 26 25 25 24 23 22 21 20 19 19 18 18 18 17 17 17 17 17 17 17 17 17 17 18 18 18 19 19 19 19 19 19 19 18 18 17 17 16 15 15 14 14 13 13 13 13 13 13 13 13 13 13 13 13 13 12 13 13
Wind_Direction
276 274 272 271 270 269 268 267 265 264 263 262 261 261 260 260 260 259 259 259 259 259 259 259 258 258 258 259 259 259 260 260 260 260 259 259 259 258 258 258 258 259 259 259 259 259 260 260 260 261 261 261 262 262 263 263 263 263 264 264 264 265 265 265 267 268 268 268 267 267 266 266 266 266 266 266 266 266 266 266 266 266 266 267 266
277 275 273 271 270 268 267 267 266 265 263 262 262 261 260 260 260 260 260 260 259 259 259 259 259 259 259 259 259 260 260 260 261 261 260 260 260 259 259 259 259 259 259 259 259 260 260 260 261 261 261 262 262 263 263 263 263 264 264 264 265 265 265 265 266 267 267 267 267 267 266 266 266 266 266 266 266 266 266 266 266 266 266 266 266
276 274 273 272 270 268 267 266 266 265 264 263 262 262 261 261 261 261 261 260 260 259 259 259 259 260 260 260 260 261 261 261 261 261 261 261 260 260 260 259 259 259 259 260 260 260 261 261 261 262 262 262 262 263 263 263 264 264 264 265 265 265 265 265 266 266 267 267 266 266 266 266 266 266 266 266 266 266 266 266 266 266 266 266 266
277 274 273 272 270 269 267 266 266 265 263 263 263 263 263 264 264 263 262 261 260 260 260 260 260 261 261 261 262 262 262 262 262 262 261 261 261 260 260 260 260 260 260 260 260 261 261 261 261 261 261 262 262 263 263 263 264 264 265 265 265 265 266 265 265 266 267 267 266 266 266 266 266 266 266 266 266 266 266 266 266 266 266 266 266
278 275 273 272 270 269 268 267 266 265 265 264 264 264 265 265 265 264 264 263 262 262 261 261 262 262 262 263 263 263 263 263 263 262 262 262 261 261 261 260 260 260 260 260 260 260 261 261 261 261 261 262 262 263 263 263 264 265 265 266 266 266 266 266 266 266 266 266 266 266 266 266 266 266 266 265 266 265 265 265 265 265 266 266 266
278 276 274 272 271 270 269 268 268 267 267 266 266 265 265 265 265 265 265 264 263 263 263 263 263 263 264 264 264 264 264 264 264 263 262 262 262 261 261 261 261 261 261 261 261 261 261 261 261 261 261 262 262 263 263 264 264 265 265 266 266 266 266 266 266 266 266 266 266 266 266 265 266 266 265 265 265 265 265 265 265 265 265 266 266
279 277 275 274 272 271 271 270 269 268 268 267 267 267 266 266 266 266 265 265 264 264 264 265 265 265 265 264 264 264 264 264 264 263 263 262 262 261 261 261 261 261 261 261 261 261 261 261 262 261 262 262 262 263 263 264 264 265 265 266 266 266 266 266 266 265 265 266 266 266 265 265 265 265 265 264 264 264 264 264 265 265 265 266 266
280 278 276 276 275 274 273 271 270 269 268 268 267 267 267 267 266 266 266 265 265 266 266 266 266 265 265 265 265 265 264 264 264 264 263 263 262 262 262 261 261 262 262 262 262 262 262 262 262 262 262 263 263 263 264 264 265 265 265 265 265 265 266 266 265 265 265 265 265 265 265 265 265 265 265 264 264 264 264 264 264 265 265 266 266
282 279 277 276 275 275 274 273 272 270 270 269 268 268 267 267 267 267 267 266 266 266 266 266 266 266 266 266 266 266 265 265 264 264 264 263 263 263 262 262 262 262 262 262 262 262 262 263 263 263 263 264 264 264 264 264 265 265 265 265 265 265 265 265 265 265 265 265 265 265 265 265 265 264 264 263 263 264 264 264 265 265 266 267 267
283 281 279 277 276 275 274 273 273 272 271 271 270 270 269 269 269 268 268 268 267 267 267 266 267 267 267 267 267 266 266 265 264 264 263 263 263 263 263 263 263 263 263 263 263 263 263 263 264 264 264 264 264 264 264 264 264 265 265 265 265 265 265 265 265 265 265 265 266 265 265 265 265 264 264 264 264 264 264 264 265 266 266 267 267
283 282 280 279 277 275 274 273 273 272 272 271 271 271 271 270 270 269 269 268 268 268 267 267 267 267 267 267 267 266 265 265 265 264 264 264 264 264 264 264 264 264 263 263 263 264 264 264 264 264 264 264 264 264 264 264 264 265 265 265 265 265 265 265 265 265 265 265 265 265 265 265 265 264 264 264 264 264 264 265 265 266 266 267 267
284 283 282 280 279 277 276 274 273 272 272 271 271 271 271 270 270 269 269 268 268 268 267 267 267 267 267 267 266 266 265 265 265 265 265 265 265 264 265 265 265 264 264 264 264 264 264 264 264 264 264 264 264 264 264 264 264 264 264 264 264 264 264 264 264 264 264 264 265 264 264 265 265 264 264 264 264 264 265 265 265 266 266 266 267
285 283 282 281 280 279 278 277 275 274 273 272 271 271 270 270 270 269 269 268 268 267 267 267 267 267 266 266 266 266 265 266 266 266 266 266 265 265 265 265 265 265 265 265 265 265 265 265 265 265 265 265 264 265 264 264 264 264 264 264 264 264 263 263 264 264 264 264 264 264 264 264 265 265 264 265 265 265 265 265 265 265 266 266 266
285 284 282 281 281 280 279 278 277 275 274 273 272 271 271 270 270 269 269 268 268 267 267 266 266 266 266 266 265 265 265 266 266 266 266 266 266 266 265 265 265 265 265 265 265 265 265 265 265 265 265 265 265 265 264 264 264 264 264 264 264 263 263 263 263 264 264 264 264 264 264 264 265 265 265 264 264 264 265 265 265 265 265 266 266
285 284 282 281 281 280 280 279 278 277 275 274 273 272 271 271 271 270 269 269 268 267 267 266 266 266 266 266 265 265 266 267 267 266 266 266 266 266 265 265 265 265 265 265 265 265 265 265 265 265 265 265 265 264 264 264 264 264 264 264 264 264 264 264 264 264 264 264 264 265 265 265 265 265 265 265 265 265 265 265 265 265 266 266 266
285 284 282 281 281 281 280 280 279 278 277 275 274 273 272 272 271 271 270 269 269 268 267 267 266 266 266 266 266 266 266 267 267 267 267 267 266 266 265 265 265 265 265 265 265 265 265 265 265 265 265 265 265 264 264 264 265 265 265 265 265 265 265 264 264 264 264 264 265 265 265 265 265 265 265 265 265 265 265 265 265 265 265 266 266
285 284 282 282 281 281 281 280 280 280 278 277 276 275 274 273 273 272 271 270 270 269 268 267 267 267 267 267 267 266 267 267 268 268 268 267 267 266 266 266 265 265 265 265 265 265 265 265 265 265 265 265 265 265 264 264 265 265 265 265 265 265 265 265 264 264 264 264 265 265 265 265 265 265 265 264 264 264 264 264 265 265 265 266 266
285 284 283 282 282 281 281 281 281 281 280 278 277 277 276 276 275 274 273 272 271 269 268 268 267 267 267 267 267 266 266 267 268 268 268 268 267 267 267 266 266 266 266 266 266 266 266 266 266 266 266 266 266 266 265 265 265 265 265 265 265 264 265 265 265 265 265 265 265 266 265 265 265 265 264 263 263 263 263 264 264 264 265 266 267
285 284 283 283 283 282 281 281 281 281 280 278 278 277 278 277 276 275 274 273 272 271 270 269 268 267 267 266 266 266 266 266 267 267 267 267 267 267 267 267 266 266 266 266 266 267 267 267 267 267 267 267 267 267 267 266 266 265 265 264 264 264 265 265 265 265 265 265 265 266 265 265 265 264 264 263 263 262 263 264 264 264 265 266 267
285 285 284 284 283 282 282 281 281 280 279 278 277 278 278 278 278 277 276 274 273 272 271 270 269 268 267 267 266 266 265 265 266 267 267 267 267 267 267 267 267 267 267 267 267 268 268 268 268 268 268 268 268 267 267 266 266 265 265 265 265 265 265 265 265 265 265 265 265 265 265 265 265 265 264 264 264 263 264 264 265 266 266 266 267
286 285 285 284 283 283 282 281 280 279 278 277 277 277 277 278 277 277 276 276 274 273 272 271 270 269 268 268 267 267 267 266 267 267 268 268 267 267 268 268 268 268 268 268 268 268 268 268 268 268 268 268 267 267 266 266 266 266 265 265 266 266 266 266 266 266 266 266 266 266 266 266 266 265 265 265 265 265 265 265 266 266 266 267 267
286 286 285 284 283 283 282 281 280 279 277 277 277 276 276 276 276 276 276 276 275 274 273 273 272 271 270 269 269 269 269 268 268 269 268 268 268 268 268 268 268 268 268 268 268 268 268 268 268 268 267 267 267 266 266 266 266 266 266 266 267 267 267 267 266 266 266 267 267 267 267 267 267 267 267 267 266 266 266 266 266 266 267 267 267
286 286 285 284 283 282 282 281 280 278 277 277 276 275 274 274 275 276 276 276 276 275 275 274 274 273 272 272 271 271 270 270 271 271 270 270 270 270 269 269 269 268 268 268 268 268 268 268 268 268 267 267 267 267 267 267 266 267 267 267 267 267 267 268 267 267 267 267 267 267 267 268 268 268 268 268 268 268 267 267 267 267 267 268 268
286 286 285 284 282 282 281 281 280 278 277 277 276 275 274 273 274 275 276 276 276 276 276 275 275 275 275 274 273 273 272 272 272 272 272 272 271 271 271 271 270 270 269 269 269 269 269 268 268 268 267 267 267 267 267 267 267 267 267 268 268 268 268 269 269 269 269 269 269 268 269 269 269 269 269 269 269 268 268 268 268 268 268 268 269
286 286 285 283 281 281 281 281 280 279 278 277 276 275 274 273 273 274 275 275 275 275 276 276 276 276 276 275 275 274 274 273 273 273 273 273 273 273 273 272 272 272 271 271 270 270 270 269 269 269 269 269 269 268 268 268 268 269 269 269 270 270 270 270 270 271 271 271 270 270 270 270 270 270 269 269 269 269 269 268 268 268 268 269 269
286 286 284 282 281 281 281 281 280 279 278 277 276 275 274 273 273 273 274 274 274 275 275 275 276 276 276 276 275 275 275 275 274 274 274 274 274 274 274 274 274 274 273 272 272 272 272 272 272 271 271 271 271 270 270 270 271 271 271 271 271 271 271 271 271 271 271 271 271 271 271 271 271 270 270 270 270 269 269 269 269 269 269 269 270
286 285 283 282 281 281 281 281 280 279 279 277 276 275 274 274 273 273 274 274 274 274 274 274 275 275 275 276 276 276 276 275 275 275 275 275 276 276 275 275 275 274 274 274 274 274 274 274 273 273 273 273 272 272 272 272 272 272 272 272 272 272 272 272 272 272 272 272 272 272 272 271 271 271 271 270 270 270 270 270 270 270 270 270 270
285 284 283 282 281 280 281 281 281 280 279 278 277 276 275 274 274 274 273 273 273 274 274 274 274 275 276 276 277 277 277 277 276 277 277 278 278 278 277 277 276 276 277 276 276 276 276 275 275 275 275 274 274 274 274 273 273 273 273 273 273 273 273 273 273 273 273 273 273 273 273 272 272 272 271 271 271 270 270 270 270 270 270 270 270
284 284 283 281 280 280 280 281 281 280 279 278 277 276 275 274 274 274 273 273 273 274 274 275 276 277 277 277 277 278 279 279 279 279 280 280 280 279 278 278 279 279 279 278 278 277 277 277 277 276 276 276 276 276 276 275 275 275 275 275 275 275 275 274 274 274 274 274 274 274 274 273 273 272 272 272 271 271 270 270 270 270 270 270 270
284 283 282 280 280 280 280 280 280 279 279 278 277 276 275 274 274 274 274 275 274 275 276 277 278 279 279 278 278 279 281 281 282 282 282 282 281 280 280 281 281 281 279 278 278 277 277 277 277 277 277 277 277 277 277 277 277 277 277 276 276 276 276 276 276 275 275 275 275 275 274 274 274 273 273 272 272 272 271 271 271 271 271 270 270
283 281 280 279 279 280 281 281 280 279 278 277 277 276 275 275 275 275 276 277 277 278 279 279 279 279 280 280 280 281 282 283 283 284 283 283 283 283 283 283 282 281 280 279 279 278 279 278 278 278 278 278 278 278 278 278 278 278 278 278 278 278 277 277 277 277 276 276 276 276 276 275 275 274 274 273 273 273 272 272 271 271 271 271 271
281 280 279 278 279 280 281 280 280 279 278 277 277 277 277 277 277 276 277 279 280 280 281 281 282 282 282 283 283 283 284 284 285 285 285 285 285 285 284 283 282 282 282 281 281 280 280 280 280 280 280 280 280 280 280 280 280 280 280 280 280 280 280 280 279 279 279 279 278 278 278 277 276 276 275 275 274 274 273 273 272 272 272 272 272
279 278 278 278 280 280 281 280 279 278 277 277 277 277 277 278 278 278 278 280 281 281 281 283 284 284 284 285 285 285 286 286 286 286 286 286 286 286 284 283 284 284 284 283 282 282 282 282 281 281 281 281 281 281 281 281 282 282 282 282 282 282 282 282 282 282 282 282 281 281 280 280 279 278 277 277 276 275 275 274 274 273 273 273 272
277 277 277 278 280 280 280 280 278 277 276 276 276 277 277 278 279 280 281 282 283 283 283 285 286 287 287 287 287 287 288 288 288 288 288 287 287 286 285 285 285 286 285 284 283 282 282 282 281 281 281 281 282 282 282 283 283 284 284 284 284 284 284 285 285 284 284 284 283 283 282 281 281 280 279 279 278 277 277 276 276 275 275 274 274
276 277 277 278 280 280 279 278 277 276 275 276 276 278 279 280 281 282 283 284 285 285 286 286 287 289 289 289 289 289 289 289 289 289 288 288 288 288 287 286 286 285 285 284 283 282 282 282 282 282 282 282 283 283 283 284 284 285 285 286 286 286 286 286 286 286 286 286 285 285 284 283 283 282 281 281 280 279 279 278 277 277 276 276 275
276 277 278 279 279 279 278 277 276 275 276 277 278 280 281 282 283 284 285 286 287 287 288 289 290 290 291 291 291 292 292 291 291 291 290 290 290 289 288 287 286 285 285 284 283 283 282 282 282 283 283 284 284 285 285 286 286 287 287 287 288 288 288 288 288 288 288 288 288 287 286 285 285 284 283 282 282 281 280 280 279 278 278 277 277
277 279 279 279 278 278 278 277 276 276 277 279 280 281 283 284 285 286 287 288 289 290 291 292 292 293 293 293 293 293 294 293 293 293 292 292 291 290 288 287 286 285 284 284 283 283 283 283 284 284 285 286 286 287 287 288 288 288 289 289 289 290 290 290 290 290 290 290 290 289 288 287 287 286 285 284 283 282 282 281 281 280 279 279 278
280 280 280 279 279 278 278 278 278 278 279 281 282 283 285 286 287 288 289 290 291 292 292 293 294 295 295 295 295 295 295 295 295 294 294 293 291 290 288 286 285 284 283 283 283 283 284 284 285 285 286 287 288 289 289 290 290 291 291 291 292 292 292 292 292 292 292 292 292 291 291 290 289 288 287 286 285 284 284 283 282 281 281 280 280
284 284 282 280 279 279 279 279 280 280 281 283 284 286 287 288 289 290 291 292 292 293 294 295 295 296 296 297 297 297 297 296 296 295 294 293 291 289 287 285 284 282 282 283 283 284 285 286 286 287 288 289 290 291 292 292 293 293 294 294 294 294 294 294 294 294 294 294 294 293 293 292 291 290 289 288 287 286 286 285 284 283 282 282 281
289 287 285 282 280 280 280 280 281 281 283 284 286 287 288 289 290 292 293 293 294 295 296 296 297 297 298 298 298 298 297 297 296 295 293 292 291 289 287 284 282 281 281 283 283 284 286 287 288 289 290 291 292 293 294 295 295 296 296 296 296 297 297 297 297 297 297 296 296 295 294 294 293 292 291 290 290 289 288 287 286 285 284 283 283
292 290 287 285 282 282 282 282 282 283 284 286 287 288 289 291 292 293 294 295 296 296 297 297 298 298 298 298 299 298 297 297 296 294 293 291 290 288 286 283 281 280 281 282 283 284 286 287 289 291 292 293 295 295 296 297 298 298 299 299 299 299 299 299 299 299 299 298 298 297 296 295 295 294 294 293 292 291 290 289 288 287 286 286 285
294 292 290 287 284 283 283 283 284 285 285 286 288 289 291 292 293 294 295 296 297 297 298 298 298 299 299 299 299 299 298 297 296 294 292 290 289 287 285 281 279 279 280 281 283 284 286 288 290 292 293 295 296 297 298 299 300 301 301 301 302 302 302 301 301 301 300 300 299 299 298 298 297 297 296 296 295 294 293 292 291 290 289 288 286
295 294 291 289 287 286 285 285 286 286 286 288 289 290 292 293 294 294 295 296 297 297 298 298 299 299 299 300 300 300 299 297 296 294 292 289 288 286 283 280 279 278 279 281 283 285 286 289 290 292 294 295 296 298 300 301 302 303 303 304 304 304 304 303 303 302 302 302 301 301 301 301 300 300 300 299 298 297 296 295 294 293 292 290 289
296 295 293 291 289 288 287 287 287 287 288 289 290 291 292 293 294 295 296 296 297 297 298 298 299 299 299 300 300 300 299 298 296 293 291 289 287 285 282 279 278 278 279 280 282 284 286 289 291 293 294 296 297 299 301 302 303 304 305 305 306 305 305 305 305 304 304 303 303 303 304 304 304 304 304 303 302 301 300 299 298 296 295 294 293
298 296 294 292 291 290 289 288 288 288 289 290 291 292 293 294 294 295 296 296 297 297 297 298 298 299 299 299 300 300 299 298 295 293 290 288 286 284 281 279 277 277 278 280 281 283 286 289 291 293 295 296 297 299 301 303 304 305 306 307 307 307 307 307 307 306 306 306 306 306 307 307 308 308 308 307 307 306 304 303 302 300 299 298 297
298 297 295 294 293 292 291 290 290 290 290 291 292 293 294 294 295 295 296 296 296 296 296 297 298 298 298 298 299 299 299 298 295 292 290 288 286 284 281 279 277 276 277 278 279 281 285 288 291 293 295 297 298 300 302 304 305 307 308 308 309 309 309 309 309 309 309 309 309 310 310 311 311 312 312 312 312 311 309 308 307 306 305 304 303
299 298 296 295 294 293 293 292 291 291 291 292 293 294 294 295 295 295 295 296 296 296 296 296 296 297 297 297 298 298 298 297 295 292 289 287 286 284 282 279 277 276 277 278 278 280 284 287 290 293 295 297 298 300 303 305 307 309 310 310 310 310 311 311 312 312 311 311 311 312 313 314 315 316 317 317 317 316 315 315 314 313 312 311 310
300 299 297 296 295 294 294 293 293 292 292 293 293 294 295 295 295 295 295 295 296 296 296 295 295 295 295 296 296 297 297 296 294 291 288 286 286 284 282 280 278 277 277 278 279 281 284 287 290 293 295 297 299 301 304 306 309 310 311 312 312 312 313 313 314 314 314 314 314 315 316 318 319 320 322 322 323 323 322 322 321 320 320 319 318
300 299 297 296 295 294 294 294 293 293 293 294 294 294 295 295 295 295 295 295 295 295 295 295 294 294 294 294 294 295 295 295 293 290 286 285 285 284 283 281 279 277 277 278 279 281 284 287 290 292 295 297 300 302 305 308 310 311 312 313 313 314 315 315 316 316 316 316 317 318 320 322 324 325 327 328 329 329 330 330 329 329 328 327 326
301 299 298 296 295 294 294 294 294 294 294 294 295 295 295 296 296 296 296 296 295 295 295 294 293 293 292 292 292 293 293 293 291 288 285 284 283 283 283 281 280 278 278 278 280 282 284 287 289 292 295 297 300 303 306 309 311 312 313 314 315 316 316 317 318 318 318 319 320 322 324 326 329 331 332 334 335 336 337 337 337 337 337 336 335
301 300 298 296 295 295 294 294 294 295 295 295 295 295 296 296 296 296 296 296 295 295 294 294 293 292 291 291 291 291 291 290 289 286 284 282 281 282 282 281 279 278 278 279 281 282 284 286 289 292 295 298 301 304 307 310 312 314 315 315 316 318 319 320 320 320 321 322 323 324 327 330 333 335 337 339 341 342 343 344 344 344 344 344 343